Time,TemperatureF,DewpointF,PressureIn,WindDirection,WindDirectionDegrees,WindSpeedMPH,WindSpeedGustMPH,Humidity,HourlyPrecipIn,Conditions,Clouds,dailyrainin,SoftwareType,DateUTC
2013-04-20 00:02:00,30.0,18.0,-100.00,NW,320,13.0,21.0,63,0.00,,,-99.99,,2013-04-20 05:02:00,
2013-04-20 00:12:00,30.0,18.0,-100.00,NW,320,13.0,21.0,63,0.00,,,-99.99,,2013-04-20 05:12:00,
2013-04-20 00:22:00,30.0,18.0,-100.00,NW,320,13.0,21.0,63,0.00,,,-99.99,,2013-04-20 05:22:00,
2013-04-20 00:52:00,29.0,16.0,-100.00,NW,315,10.0,20.0,60,0.00,,,-99.99,,2013-04-20 05:52:00,
2013-04-20 01:02:00,29.0,16.0,-100.00,NW,315,10.0,20.0,60,0.00,,,-99.99,,2013-04-20 06:02:00,
2013-04-20 01:12:00,29.0,16.0,-100.00,NW,315,10.0,20.0,60,0.00,,,-99.99,,2013-04-20 06:12:00,
2013-04-20 01:21:00,29.0,16.0,-100.00,NW,315,10.0,20.0,60,0.00,,,-99.99,,2013-04-20 06:21:00,
2013-04-20 01:52:00,28.0,15.0,-100.00,NW,320,7.0,14.0,59,0.00,,,-99.99,,2013-04-20 06:52:00,
2013-04-20 02:01:00,28.0,15.0,-100.00,NW,320,7.0,14.0,59,0.00,,,-99.99,,2013-04-20 07:01:00,
2013-04-20 02:11:00,28.0,15.0,-100.00,NW,320,7.0,14.0,59,0.00,,,-99.99,,2013-04-20 07:11:00,
2013-04-20 02:21:00,28.0,15.0,-100.00,NW,320,7.0,14.0,59,0.00,,,-99.99,,2013-04-20 07:21:00,
2013-04-20 02:52:00,27.0,17.0,-100.00,WNW,285,4.0,7.0,66,0.00,,,-99.99,,2013-04-20 07:52:00,
2013-04-20 03:02:00,27.0,17.0,-100.00,WNW,285,4.0,7.0,66,0.00,,,-99.99,,2013-04-20 08:02:00,
2013-04-20 03:11:00,27.0,17.0,-100.00,WNW,285,4.0,7.0,66,0.00,,,-99.99,,2013-04-20 08:11:00,
2013-04-20 03:21:00,27.0,17.0,-100.00,WNW,285,4.0,7.0,66,0.00,,,-99.99,,2013-04-20 08:21:00,
2013-04-20 03:52:00,26.0,17.0,-100.00,WNW,285,2.0,7.0,70,0.00,,,-99.99,,2013-04-20 08:52:00,
2013-04-20 04:01:00,26.0,17.0,-100.00,WNW,285,2.0,7.0,70,0.00,,,-99.99,,2013-04-20 09:01:00,
2013-04-20 04:12:00,26.0,17.0,-100.00,WNW,285,2.0,7.0,70,0.00,,,-99.99,,2013-04-20 09:12:00,
2013-04-20 04:21:00,26.0,17.0,-100.00,WNW,285,2.0,7.0,70,0.00,,,-99.99,,2013-04-20 09:21:00,
2013-04-20 04:53:00,25.0,18.0,-100.00,West,275,5.0,7.0,76,0.00,,,-99.99,,2013-04-20 09:53:00,
2013-04-20 05:03:00,25.0,18.0,-100.00,West,275,5.0,7.0,76,0.00,,,-99.99,,2013-04-20 10:03:00,
2013-04-20 05:13:00,25.0,18.0,-100.00,West,275,5.0,7.0,76,0.00,,,-99.99,,2013-04-20 10:13:00,
2013-04-20 05:23:00,25.0,18.0,-100.00,West,275,5.0,7.0,76,0.00,,,-99.99,,2013-04-20 10:23:00,
2013-04-20 05:53:00,24.0,19.0,-100.00,WNW,285,5.0,7.0,80,0.00,,,-99.99,,2013-04-20 10:53:00,
2013-04-20 06:02:00,24.0,19.0,-100.00,WNW,285,5.0,7.0,80,0.00,,,-99.99,,2013-04-20 11:02:00,
2013-04-20 06:12:00,24.0,19.0,-100.00,WNW,285,5.0,7.0,80,0.00,,,-99.99,,2013-04-20 11:12:00,
2013-04-20 06:23:00,24.0,19.0,-100.00,WNW,285,5.0,7.0,80,0.00,,,-99.99,,2013-04-20 11:23:00,
2013-04-20 06:53:00,24.0,19.0,-100.00,WNW,300,4.0,7.0,82,0.00,,,-99.99,,2013-04-20 11:53:00,
2013-04-20 07:02:00,24.0,19.0,-100.00,WNW,300,4.0,7.0,82,0.00,,,-99.99,,2013-04-20 12:02:00,
2013-04-20 07:11:00,24.0,19.0,-100.00,WNW,300,4.0,7.0,82,0.00,,,-99.99,,2013-04-20 12:11:00,
2013-04-20 07:22:00,24.0,19.0,-100.00,WNW,300,4.0,7.0,82,0.00,,,-99.99,,2013-04-20 12:22:00,
2013-04-20 07:52:00,28.0,21.0,-100.00,WNW,285,5.0,7.0,74,0.00,,,-99.99,,2013-04-20 12:52:00,
2013-04-20 08:02:00,28.0,21.0,-100.00,WNW,285,5.0,7.0,74,0.00,,,-99.99,,2013-04-20 13:02:00,
2013-04-20 08:11:00,28.0,21.0,-100.00,WNW,285,5.0,7.0,74,0.00,,,-99.99,,2013-04-20 13:11:00,
2013-04-20 08:21:00,28.0,21.0,-100.00,WNW,285,5.0,7.0,74,0.00,,,-99.99,,2013-04-20 13:21:00,
2013-04-20 08:52:00,31.0,17.0,-100.00,NW,305,9.0,16.0,55,0.00,,,-99.99,,2013-04-20 13:52:00,
2013-04-20 09:02:00,31.0,17.0,-100.00,NW,305,9.0,16.0,55,0.00,,,-99.99,,2013-04-20 14:02:00,
2013-04-20 09:11:00,31.0,17.0,-100.00,NW,305,9.0,16.0,55,0.00,,,-99.99,,2013-04-20 14:11:00,
2013-04-20 09:21:00,31.0,17.0,-100.00,NW,305,9.0,16.0,55,0.00,,,-99.99,,2013-04-20 14:21:00,
2013-04-20 09:52:00,33.0,13.0,-100.00,NNW,335,12.0,19.0,43,0.00,,,-99.99,,2013-04-20 14:52:00,
2013-04-20 10:01:00,33.0,13.0,-100.00,NNW,335,12.0,19.0,43,0.00,,,-99.99,,2013-04-20 15:01:00,
2013-04-20 10:11:00,33.0,13.0,-100.00,NNW,335,12.0,19.0,43,0.00,,,-99.99,,2013-04-20 15:11:00,
2013-04-20 10:21:00,33.0,13.0,-100.00,NNW,335,12.0,19.0,43,0.00,,,-99.99,,2013-04-20 15:21:00,
2013-04-20 10:30:00,34.0,7.0,-100.00,NW,325,13.0,22.0,31,0.00,,,-99.99,,2013-04-20 15:30:00,
2013-04-20 10:53:00,34.0,7.0,-100.00,NW,325,13.0,22.0,31,0.00,,,-99.99,,2013-04-20 15:53:00,
2013-04-20 11:03:00,34.0,7.0,-100.00,NW,325,13.0,22.0,31,0.00,,,-99.99,,2013-04-20 16:03:00,
2013-04-20 11:12:00,34.0,7.0,-100.00,NW,325,13.0,22.0,31,0.00,,,-99.99,,2013-04-20 16:12:00,
2013-04-20 11:23:00,34.0,7.0,-100.00,NW,325,13.0,22.0,31,0.00,,,-99.99,,2013-04-20 16:23:00,
2013-04-20 11:30:00,36.0,4.0,-100.00,WNW,285,12.0,21.0,25,0.00,,,-99.99,,2013-04-20 16:30:00,
2013-04-20 11:53:00,36.0,4.0,-100.00,WNW,285,12.0,21.0,25,0.00,,,-99.99,,2013-04-20 16:53:00,
2013-04-20 12:02:00,36.0,4.0,-100.00,WNW,285,12.0,21.0,25,0.00,,,-99.99,,2013-04-20 17:02:00,
2013-04-20 12:12:00,36.0,4.0,-100.00,WNW,285,12.0,21.0,25,0.00,,,-99.99,,2013-04-20 17:12:00,
2013-04-20 12:23:00,36.0,4.0,-100.00,WNW,285,12.0,21.0,25,0.00,,,-99.99,,2013-04-20 17:23:00,
2013-04-20 12:31:00,39.0,5.0,-100.00,NNW,335,7.0,20.0,23,0.00,,,-99.99,,2013-04-20 17:31:00,
2013-04-20 12:52:00,39.0,5.0,-100.00,NNW,335,7.0,20.0,23,0.00,,,-99.99,,2013-04-20 17:52:00,
2013-04-20 13:02:00,39.0,5.0,-100.00,NNW,335,7.0,20.0,23,0.00,,,-99.99,,2013-04-20 18:02:00,
2013-04-20 13:12:00,39.0,5.0,-100.00,NNW,335,7.0,20.0,23,0.00,,,-99.99,,2013-04-20 18:12:00,
2013-04-20 13:22:00,39.0,5.0,-100.00,NNW,335,7.0,20.0,23,0.00,,,-99.99,,2013-04-20 18:22:00,
2013-04-20 13:52:00,40.0,2.0,-100.00,North,5,6.0,19.0,20,0.00,,,-99.99,,2013-04-20 18:52:00,
2013-04-20 14:02:00,40.0,2.0,-100.00,North,5,6.0,19.0,20,0.00,,,-99.99,,2013-04-20 19:02:00,
2013-04-20 14:11:00,40.0,2.0,-100.00,North,5,6.0,19.0,20,0.00,,,-99.99,,2013-04-20 19:11:00,
2013-04-20 14:21:00,40.0,2.0,-100.00,North,5,6.0,19.0,20,0.00,,,-99.99,,2013-04-20 19:21:00,
2013-04-20 14:30:00,42.0,-3.0,-100.00,North,0,3.0,17.0,15,0.00,,,-99.99,,2013-04-20 19:30:00,
2013-04-20 14:52:00,42.0,-3.0,-100.00,North,0,3.0,17.0,15,0.00,,,-99.99,,2013-04-20 19:52:00,
2013-04-20 15:02:00,42.0,-3.0,-100.00,North,0,3.0,17.0,15,0.00,,,-99.99,,2013-04-20 20:02:00,
2013-04-20 15:12:00,42.0,-3.0,-100.00,North,0,3.0,17.0,15,0.00,,,-99.99,,2013-04-20 20:12:00,
2013-04-20 15:21:00,42.0,-3.0,-100.00,North,0,3.0,17.0,15,0.00,,,-99.99,,2013-04-20 20:21:00,
2013-04-20 15:52:00,42.0,-5.0,-100.00,NW,320,9.0,17.0,13,0.00,,,-99.99,,2013-04-20 20:52:00,
2013-04-20 16:01:00,42.0,-5.0,-100.00,NW,320,9.0,17.0,13,0.00,,,-99.99,,2013-04-20 21:01:00,
2013-04-20 16:12:00,42.0,-5.0,-100.00,NW,320,9.0,17.0,13,0.00,,,-99.99,,2013-04-20 21:12:00,
2013-04-20 16:22:00,42.0,-5.0,-100.00,NW,320,9.0,17.0,13,0.00,,,-99.99,,2013-04-20 21:22:00,
2013-04-20 16:53:00,42.0,-5.0,-100.00,North,0,7.0,14.0,13,0.00,,,-99.99,,2013-04-20 21:53:00,
2013-04-20 17:02:00,42.0,-5.0,-100.00,North,0,7.0,14.0,13,0.00,,,-99.99,,2013-04-20 22:02:00,
2013-04-20 17:12:00,42.0,-5.0,-100.00,North,0,7.0,14.0,13,0.00,,,-99.99,,2013-04-20 22:12:00,
2013-04-20 17:22:00,42.0,-5.0,-100.00,North,0,7.0,14.0,13,0.00,,,-99.99,,2013-04-20 22:22:00,
2013-04-20 17:53:00,44.0,-4.0,-100.00,South,180,3.0,6.0,13,0.00,,,-99.99,,2013-04-20 22:53:00,
2013-04-20 18:02:00,44.0,-4.0,-100.00,South,180,3.0,6.0,13,0.00,,,-99.99,,2013-04-20 23:02:00,
2013-04-20 18:11:00,44.0,-4.0,-100.00,South,180,3.0,6.0,13,0.00,,,-99.99,,2013-04-20 23:11:00,
2013-04-20 18:22:00,44.0,-4.0,-100.00,South,180,3.0,6.0,13,0.00,,,-99.99,,2013-04-20 23:22:00,
2013-04-20 18:30:00,43.0,-4.0,-100.00,South,180,1.0,4.0,13,0.00,,,-99.99,,2013-04-20 23:30:00,
2013-04-20 18:53:00,43.0,-4.0,-100.00,South,180,1.0,4.0,13,0.00,,,-99.99,,2013-04-20 23:53:00,
2013-04-20 19:01:00,43.0,-4.0,-100.00,South,180,1.0,4.0,13,0.00,,,-99.99,,2013-04-21 00:01:00,
2013-04-20 19:12:00,43.0,-4.0,-100.00,South,180,1.0,4.0,13,0.00,,,-99.99,,2013-04-21 00:12:00,
2013-04-20 19:22:00,43.0,-4.0,-100.00,South,180,1.0,4.0,13,0.00,,,-99.99,,2013-04-21 00:22:00,
2013-04-20 19:52:00,41.0,-3.0,-100.00,NE,45,2.0,4.0,15,0.00,,,-99.99,,2013-04-21 00:52:00,
2013-04-20 20:01:00,41.0,-3.0,-100.00,NE,45,2.0,4.0,15,0.00,,,-99.99,,2013-04-21 01:01:00,
2013-04-20 20:12:00,41.0,-3.0,-100.00,NE,45,2.0,4.0,15,0.00,,,-99.99,,2013-04-21 01:12:00,
2013-04-20 20:21:00,41.0,-3.0,-100.00,NE,45,2.0,4.0,15,0.00,,,-99.99,,2013-04-21 01:21:00,
2013-04-20 20:30:00,35.0,2.0,-100.00,South,175,0.0,1.0,24,0.00,,,-99.99,,2013-04-21 01:30:00,
2013-04-20 20:52:00,35.0,2.0,-100.00,South,175,0.0,1.0,24,0.00,,,-99.99,,2013-04-21 01:52:00,
2013-04-20 21:02:00,35.0,2.0,-100.00,South,175,0.0,1.0,24,0.00,,,-99.99,,2013-04-21 02:02:00,
2013-04-20 21:11:00,35.0,2.0,-100.00,South,175,0.0,1.0,24,0.00,,,-99.99,,2013-04-21 02:11:00,
2013-04-20 21:21:00,35.0,2.0,-100.00,South,175,0.0,1.0,24,0.00,,,-99.99,,2013-04-21 02:21:00,
2013-04-20 21:52:00,31.0,10.0,-100.00,NE,50,3.0,4.0,41,0.00,,,-99.99,,2013-04-21 02:52:00,
2013-04-20 22:01:00,31.0,10.0,-100.00,NE,50,3.0,4.0,41,0.00,,,-99.99,,2013-04-21 03:01:00,
2013-04-20 22:11:00,31.0,10.0,-100.00,NE,50,3.0,4.0,41,0.00,,,-99.99,,2013-04-21 03:11:00,
2013-04-20 22:21:00,31.0,10.0,-100.00,NE,50,3.0,4.0,41,0.00,,,-99.99,,2013-04-21 03:21:00,
2013-04-20 22:52:00,31.0,12.0,-100.00,NE,40,2.0,3.0,45,0.00,,,-99.99,,2013-04-21 03:52:00,
2013-04-20 23:02:00,31.0,12.0,-100.00,NE,40,2.0,3.0,45,0.00,,,-99.99,,2013-04-21 04:02:00,
2013-04-20 23:12:00,31.0,12.0,-100.00,NE,40,2.0,3.0,45,0.00,,,-99.99,,2013-04-21 04:12:00,
2013-04-20 23:23:00,31.0,12.0,-100.00,NE,40,2.0,3.0,45,0.00,,,-99.99,,2013-04-21 04:23:00,
2013-04-20 23:53:00,31.0,15.0,-100.00,NNE,30,2.0,3.0,50,0.00,,,-99.99,,2013-04-21 04:53:00,